When you browse on this site, cookies collect data to enhance your experience and personalize the content and advertising you see.
Visit our Privacy Policy to learn more. By continuing to use the site, you agree to this use of cookies and data.
  • In Hungary
  • List of Countries
  • For 7 days
  • Water Temperature
  • Satellite Maps
  • Weather Map
  • News
  • Weather Widgets
  • user-avatar
    Login

    Hourly Weather Chuvashskaya Mayna

    Today, 22 May, Wednesday

    Time Temperature Precipitation Wind Pressure Humidity
    00:00 +8°C° 0 mm 1 mps 753 mmHg 68%
    01:00 +8°C° 0 mm 1 mps 753 mmHg 68%
    02:00 +8°C° 0 mm 1 mps 753 mmHg 69%
    03:00 +8°C° 0 mm 1 mps 752 mmHg 68%
    04:00 +9°C° 0 mm 1 mps 752 mmHg 69%
    05:00 +9°C° 0 mm 2 mps 752 mmHg 69%
    06:00 +10°C° 0 mm 2 mps 752 mmHg 70%
    07:00 +12°C° 0 mm 2 mps 752 mmHg 67%
    08:00 +12°C° 0 mm 3 mps 752 mmHg 65%
    09:00 +14°C° 0 mm 3 mps 752 mmHg 61%
    10:00 +14°C° 0 mm 3 mps 751 mmHg 63%
    11:00 +14°C° 0 mm 3 mps 751 mmHg 64%
    12:00 +14°C° 0 mm 3 mps 751 mmHg 66%
    13:00 +14°C° 0.1 mm 4 mps 751 mmHg 69%
    14:00 +14°C° 0.1 mm 4 mps 750 mmHg 71%
    15:00 +14°C° 0 mm 4 mps 750 mmHg 74%
    16:00 +13°C° 0.5 mm 3 mps 750 mmHg 80%
    17:00 +12°C° 0.5 mm 3 mps 749 mmHg 85%
    18:00 +12°C° 0.5 mm 2 mps 749 mmHg 91%
    19:00 +10°C° 0.4 mm 2 mps 749 mmHg 92%
    20:00 +10°C° 0.4 mm 2 mps 749 mmHg 93%
    21:00 +10°C° 0.4 mm 2 mps 748 mmHg 94%
    22:00 +10°C° 0.2 mm 2 mps 748 mmHg 95%
    23:00 +9°C° 0.2 mm 2 mps 747 mmHg 95%

    Tomorrow, 23 May, Thursday

    Time Temperature Precipitation Wind Pressure Humidity
    00:00 +9°C° 0.2 mm 3 mps 747 mmHg 96%
    01:00 +10°C° 0.2 mm 2 mps 747 mmHg 96%
    02:00 +10°C° 0.2 mm 2 mps 747 mmHg 97%
    03:00 +10°C° 0.2 mm 2 mps 746 mmHg 97%
    04:00 +11°C° 0.3 mm 3 mps 746 mmHg 96%
    05:00 +12°C° 0.3 mm 3 mps 746 mmHg 94%
    06:00 +13°C° 0.3 mm 3 mps 745 mmHg 93%
    07:00 +14°C° 0.2 mm 4 mps 745 mmHg 91%
    08:00 +15°C° 0.2 mm 4 mps 745 mmHg 89%
    09:00 +17°C° 0.2 mm 4 mps 745 mmHg 87%
    10:00 +16°C° 0.8 mm 5 mps 744 mmHg 83%
    11:00 +17°C° 0.8 mm 5 mps 744 mmHg 80%
    12:00 +19°C° 0.8 mm 6 mps 744 mmHg 76%
    13:00 +19°C° 0.4 mm 6 mps 743 mmHg 74%
    14:00 +19°C° 0.4 mm 5 mps 743 mmHg 73%
    15:00 +20°C° 0.4 mm 5 mps 742 mmHg 71%
    16:00 +19°C° 0.7 mm 5 mps 742 mmHg 74%
    17:00 +17°C° 0.7 mm 5 mps 742 mmHg 77%
    18:00 +17°C° 0.7 mm 4 mps 741 mmHg 80%
    19:00 +15°C° 1.3 mm 4 mps 741 mmHg 84%
    20:00 +14°C° 1.3 mm 4 mps 741 mmHg 89%
    21:00 +14°C° 1.3 mm 4 mps 741 mmHg 93%
    22:00 +13°C° 0.6 mm 4 mps 741 mmHg 94%
    23:00 +13°C° 0.6 mm 4 mps 741 mmHg 94%

    Day after tomorrow, 24 May, Friday

    Time Temperature Precipitation Wind Pressure Humidity
    00:00 +13°C° 0.6 mm 4 mps 741 mmHg 95%
    01:00 +12°C° 0.3 mm 4 mps 741 mmHg 95%
    02:00 +12°C° 0.3 mm 4 mps 741 mmHg 95%
    03:00 +10°C° 0.3 mm 5 mps 742 mmHg 95%
    04:00 +10°C° 0 mm 5 mps 742 mmHg 93%
    05:00 +9°C° 0 mm 5 mps 743 mmHg 91%
    06:00 +9°C° 0 mm 5 mps 744 mmHg 89%
    07:00 +9°C° 0 mm 5 mps 744 mmHg 82%
    08:00 +10°C° 0 mm 5 mps 745 mmHg 76%
    09:00 +10°C° 0 mm 5 mps 746 mmHg 70%
    10:00 +12°C° 0 mm 5 mps 746 mmHg 64%
    11:00 +12°C° 0 mm 5 mps 747 mmHg 59%
    12:00 +13°C° 0 mm 5 mps 747 mmHg 53%
    13:00 +13°C° 0 mm 5 mps 747 mmHg 53%
    14:00 +13°C° 0 mm 5 mps 748 mmHg 53%
    15:00 +13°C° 0 mm 5 mps 748 mmHg 53%
    16:00 +12°C° 0 mm 4 mps 748 mmHg 57%
    17:00 +12°C° 0 mm 4 mps 749 mmHg 60%
    18:00 +11°C° 0 mm 3 mps 749 mmHg 64%
    19:00 +10°C° 0 mm 3 mps 750 mmHg 65%
    20:00 +8°C° 0 mm 3 mps 750 mmHg 66%
    21:00 +7°C° 0 mm 2 mps 751 mmHg 66%
    22:00 +6°C° 0 mm 2 mps 751 mmHg 67%
    23:00 +6°C° 0 mm 2 mps 752 mmHg 67%

    25 May, Saturday

    Time Temperature Precipitation Wind Pressure Humidity
    00:00 +5°C° 0 mm 2 mps 752 mmHg 67%
    01:00 +5°C° 0 mm 2 mps 753 mmHg 68%
    02:00 +4°C° 0 mm 2 mps 753 mmHg 69%
    03:00 +5°C° 0 mm 1 mps 753 mmHg 69%
    04:00 +6°C° 0 mm 1 mps 754 mmHg 68%
    05:00 +7°C° 0 mm 1 mps 754 mmHg 66%
    06:00 +8°C° 0 mm 1 mps 754 mmHg 64%
    07:00 +9°C° 0 mm 1 mps 755 mmHg 59%
    08:00 +10°C° 0 mm 2 mps 755 mmHg 55%
    09:00 +12°C° 0 mm 2 mps 755 mmHg 50%
    10:00 +13°C° 0 mm 2 mps 755 mmHg 49%
    11:00 +13°C° 0 mm 2 mps 755 mmHg 48%
    12:00 +14°C° 0 mm 2 mps 754 mmHg 46%
    13:00 +15°C° 0 mm 2 mps 754 mmHg 47%
    14:00 +15°C° 0 mm 2 mps 754 mmHg 47%
    15:00 +16°C° 0 mm 3 mps 753 mmHg 48%
    16:00 +14°C° 0 mm 3 mps 753 mmHg 53%
    17:00 +14°C° 0 mm 3 mps 753 mmHg 58%
    18:00 +13°C° 0 mm 3 mps 753 mmHg 64%
    19:00 +12°C° 0 mm 3 mps 753 mmHg 65%
    20:00 +10°C° 0 mm 3 mps 753 mmHg 67%
    21:00 +9°C° 0 mm 3 mps 753 mmHg 68%
    22:00 +8°C° 0 mm 3 mps 753 mmHg 69%
    23:00 +8°C° 0 mm 3 mps 753 mmHg 70%

    26 May, Sunday

    Time Temperature Precipitation Wind Pressure Humidity
    00:00 +6°C° 0 mm 4 mps 752 mmHg 70%
    01:00 +6°C° 0 mm 4 mps 752 mmHg 70%
    02:00 +6°C° 0 mm 4 mps 752 mmHg 69%
    03:00 +6°C° 0 mm 4 mps 752 mmHg 68%
    04:00 +7°C° 0 mm 5 mps 752 mmHg 69%
    05:00 +8°C° 0 mm 5 mps 751 mmHg 69%
    06:00 +9°C° 0 mm 6 mps 751 mmHg 70%
    07:00 +10°C° 0 mm 6 mps 751 mmHg 68%
    08:00 +11°C° 0 mm 6 mps 750 mmHg 65%
    09:00 +14°C° 0 mm 7 mps 750 mmHg 63%
    10:00 +15°C° 0.1 mm 6 mps 750 mmHg 64%
    11:00 +15°C° 0.1 mm 6 mps 749 mmHg 65%
    12:00 +16°C° 0.1 mm 6 mps 749 mmHg 66%
    13:00 +16°C° 0.5 mm 6 mps 748 mmHg 72%
    14:00 +16°C° 0.5 mm 6 mps 748 mmHg 77%
    15:00 +16°C° 0.5 mm 5 mps 748 mmHg 83%
    16:00 +16°C° 0 mm 6 mps 747 mmHg 83%
    17:00 +17°C° 0 mm 6 mps 746 mmHg 84%
    18:00 +17°C° 0 mm 6 mps 746 mmHg 84%
    19:00 +16°C° 0 mm 5 mps 745 mmHg 86%
    20:00 +15°C° 0 mm 5 mps 745 mmHg 89%
    21:00 +14°C° 0 mm 5 mps 745 mmHg 91%
    22:00 +14°C° 0.1 mm 5 mps 744 mmHg 92%
    23:00 +14°C° 0.1 mm 6 mps 744 mmHg 92%

    27 May, Monday

    Time Temperature Precipitation Wind Pressure Humidity
    00:00 +15°C° 0.1 mm 6 mps 744 mmHg 92%
    01:00 +14°C° 0 mm 6 mps 744 mmHg 94%
    02:00 +14°C° 0 mm 6 mps 744 mmHg 95%
    03:00 +14°C° 0 mm 6 mps 743 mmHg 96%
    04:00 +14°C° 0 mm 6 mps 743 mmHg 95%
    05:00 +14°C° 0 mm 6 mps 743 mmHg 93%
    06:00 +14°C° 0 mm 5 mps 743 mmHg 92%
    07:00 +16°C° 0 mm 6 mps 743 mmHg 87%
    08:00 +18°C° 0 mm 7 mps 743 mmHg 82%
    09:00 +20°C° 0 mm 7 mps 743 mmHg 76%
    10:00 +21°C° 0.7 mm 7 mps 743 mmHg 75%
    11:00 +22°C° 0.7 mm 7 mps 743 mmHg 74%
    12:00 +22°C° 0.7 mm 7 mps 743 mmHg 72%
    13:00 +23°C° 0.7 mm 7 mps 742 mmHg 72%
    14:00 +23°C° 0.7 mm 6 mps 742 mmHg 71%
    15:00 +23°C° 0.7 mm 6 mps 742 mmHg 71%
    16:00 +22°C° 0.1 mm 5 mps 742 mmHg 72%
    17:00 +22°C° 0.1 mm 4 mps 741 mmHg 74%
    18:00 +21°C° 0.1 mm 4 mps 741 mmHg 76%
    19:00 +20°C° 0.2 mm 4 mps 741 mmHg 79%
    20:00 +17°C° 0.2 mm 5 mps 741 mmHg 83%
    21:00 +16°C° 0.2 mm 5 mps 741 mmHg 87%
    22:00 +15°C° 0.4 mm 5 mps 741 mmHg 89%
    23:00 +14°C° 0.4 mm 4 mps 741 mmHg 92%
    Show more